| time (UTC) | temp F | wind direction | speed knots | gust knots | rain 1hr in | rain 24hr in | rain mn in | humidity % | barometer mb |
| 20260506180041 | 79 | 86 | 1.7 | 6.1 | 0.00 | 0.00 | 0.00 | 90 | 1011.1 |
| 20260506174544 | 79 | 121 | 0.9 | 5.2 | 0.00 | 0.00 | 0.00 | 91 | 1011.0 |
| 20260506173038 | 79 | 105 | 0.9 | 3.5 | 0.00 | 0.00 | 0.00 | 91 | 1011.1 |
| 20260506171542 | 79 | 117 | 1.7 | 5.2 | 0.00 | 0.00 | 0.00 | 91 | 1011.0 |
| 20260506170100 | 79 | 127 | 0.9 | 4.3 | 0.00 | 0.00 | 0.00 | 90 | 1011.0 |
| 20260506164538 | 80 | 94 | 0.9 | 5.2 | 0.00 | 0.00 | 0.00 | 89 | 1011.2 |
| 20260506163039 | 80 | 148 | 2.6 | 6.1 | 0.00 | 0.00 | 0.00 | 90 | 1011.0 |
| 20260506161544 | 80 | 108 | 1.7 | 7.8 | 0.00 | 0.00 | 0.00 | 91 | 1010.5 |
| 20260506160040 | 80 | 17 | 0.9 | 7.0 | 0.00 | 0.00 | 0.00 | 92 | 1010.5 |
| 20260506154544 | 79 | 158 | 1.7 | 7.8 | 0.00 | 0.00 | 0.00 | 92 | 1010.2 |
| 20260506153038 | 79 | 129 | 2.6 | 7.0 | 0.00 | 0.00 | 0.00 | 93 | 1010.0 |
| 20260506151543 | 78 | 153 | 1.7 | 6.1 | 0.00 | 0.00 | 0.00 | 94 | 1010.1 |
| 20260506150037 | 77 | 78 | 2.6 | 6.1 | 0.00 | 0.00 | 0.00 | 94 | 1009.9 |
| 20260506144548 | 77 | 96 | 1.7 | 6.1 | 0.00 | 0.00 | 0.00 | 95 | 1010.2 |
| 20260506143041 | 77 | 109 | 0.9 | 5.2 | 0.00 | 0.00 | 0.00 | 95 | 1010.2 |
| 20260506141540 | 77 | 132 | 0.9 | 3.5 | 0.00 | 0.00 | 0.00 | 95 | 1010.1 |
| 20260506140040 | 77 | 81 | 0.9 | 4.3 | 0.00 | 0.00 | 0.00 | 95 | 1009.9 |
| 20260506134538 | 77 | 129 | 0.9 | 6.1 | 0.00 | 0.00 | 0.00 | 95 | 1009.6 |
| 20260506133037 | 77 | 0 | 0.9 | 3.5 | 0.00 | 0.00 | 0.00 | 95 | 1009.7 |
| 20260506131537 | 77 | 52 | 0.9 | 5.2 | 0.00 | 0.00 | 0.00 | 96 | 1009.5 |
| 20260506130045 | 77 | 117 | 0.9 | 5.2 | 0.00 | 0.00 | 0.00 | 96 | 1009.5 |
| 20260506124543 | 76 | 111 | 0.0 | 3.5 | 0.00 | 0.00 | 0.00 | 96 | 1009.6 |
| 20260506123038 | 76 | 72 | 0.0 | 3.5 | 0.00 | 0.00 | 0.00 | 96 | 1009.6 |
| 20260506121537 | 76 | 61 | 0.9 | 3.5 | 0.00 | 0.00 | 0.00 | 96 | 1009.5 |
| 20260506120042 | 76 | 199 | 0.9 | 4.3 | 0.00 | 0.00 | 0.00 | 96 | 1009.3 |
| 20260506114538 | 76 | 37 | 0.0 | 3.5 | 0.00 | 0.00 | 0.00 | 96 | 1009.1 |
| 20260506113042 | 76 | 169 | 1.7 | 4.3 | 0.00 | 0.00 | 0.00 | 96 | 1009.3 |
| 20260506111540 | 76 | 125 | 0.9 | 3.5 | 0.00 | 0.00 | 0.00 | 97 | 1009.2 |
| 20260506110038 | 76 | 119 | 0.0 | 2.6 | 0.00 | 0.00 | 0.00 | 96 | 1009.1 |
| 20260506104540 | 76 | 117 | 0.0 | 2.6 | 0.00 | 0.00 | 0.00 | 97 | 1009.1 |
| 20260506103047 | 76 | 92 | 0.9 | 2.6 | 0.00 | 0.00 | 0.00 | 97 | 1008.8 |
| 20260506101544 | 76 | 0 | 0.0 | 2.6 | 0.00 | 0.00 | 0.00 | 97 | 1008.8 |
| 20260506100041 | 76 | 67 | 0.0 | 3.5 | 0.00 | 0.00 | 0.00 | 96 | 1008.7 |
| 20260506094542 | 76 | 60 | 1.7 | 4.3 | 0.00 | 0.00 | 0.00 | 96 | 1008.6 |
| 20260506093038 | 75 | 115 | 0.9 | 2.6 | 0.00 | 0.00 | 0.00 | 96 | 1008.5 |
| 20260506091538 | 75 | 108 | 0.9 | 1.7 | 0.00 | 0.00 | 0.00 | 96 | 1008.5 |
| 20260506090049 | 76 | 96 | 0.0 | 4.3 | 0.00 | 0.00 | 0.00 | 96 | 1008.6 |
| 20260506084548 | 76 | 124 | 0.9 | 4.3 | 0.00 | 0.00 | 0.00 | 96 | 1008.7 |
| 20260506083043 | 76 | 146 | 0.9 | 5.2 | 0.00 | 0.00 | 0.00 | 96 | 1008.8 |
| 20260506081542 | 76 | 115 | 0.0 | 2.6 | 0.00 | 0.00 | 0.00 | 96 | 1008.9 |
| 20260506073053 | 76 | 149 | 0.9 | 4.3 | 0.00 | 0.00 | 0.00 | 95 | 1009.5 |
| 20260506071541 | 76 | 119 | 1.7 | 5.2 | 0.00 | 0.00 | 0.00 | 95 | 1009.8 |
| 20260506061552 | 76 | 57 | 0.9 | 7.0 | 0.00 | 0.00 | 0.00 | 95 | 1009.6 |
| 20260506044546 | 76 | 123 | 3.5 | 7.8 | 0.00 | 0.00 | 0.00 | 93 | 1009.7 |
| 20260506043041 | 77 | 25 | 2.6 | 9.6 | 0.00 | 0.00 | 0.00 | 93 | 1009.7 |
| 20260506041544 | 77 | 168 | 3.5 | 7.8 | 0.00 | 0.00 | 0.00 | 93 | 1009.6 |
| 20260506040044 | 77 | 126 | 1.7 | 8.7 | 0.00 | 0.00 | 0.00 | 93 | 1009.8 |
| 20260506034542 | 77 | 101 | 2.6 | 8.7 | 0.00 | 0.00 | 0.00 | 93 | 1009.6 |
| 20260506033043 | 77 | 39 | 1.7 | 7.8 | 0.00 | 0.00 | 0.00 | 93 | 1009.6 |
| 20260506031546 | 77 | 112 | 1.7 | 7.8 | 0.00 | 0.00 | 0.00 | 93 | 1009.5 |
| 20260506030045 | 77 | 41 | 1.7 | 7.8 | 0.00 | 0.00 | 0.00 | 93 | 1009.3 |
| 20260506024553 | 77 | 184 | 3.5 | 7.0 | 0.00 | 0.00 | 0.00 | 93 | 1009.1 |
| 20260506023041 | 77 | 103 | 1.7 | 6.1 | 0.00 | 0.00 | 0.00 | 93 | 1008.8 |
| 20260506021551 | 77 | 150 | 2.6 | 8.7 | 0.00 | 0.00 | 0.00 | 93 | 1008.8 |
| 20260506020037 | 77 | 91 | 2.6 | 7.0 | 0.00 | 0.00 | 0.00 | 93 | 1008.8 |
| 20260506014544 | 77 | 124 | 3.5 | 8.7 | 0.00 | 0.00 | 0.00 | 93 | 1008.5 |
| 20260506013053 | 77 | 0 | 2.6 | 10.4 | 0.00 | 0.00 | 0.00 | 93 | 1008.3 |
| 20260506011552 | 77 | 87 | 1.7 | 6.1 | 0.00 | 0.00 | 0.00 | 93 | 1008.1 |
| 20260506010041 | 77 | 137 | 1.7 | 7.8 | 0.00 | 0.00 | 0.00 | 92 | 1008.1 |
| 20260506004538 | 77 | 145 | 2.6 | 7.8 | 0.00 | 0.00 | 0.00 | 92 | 1007.7 |
| 20260506003038 | 78 | 61 | 2.6 | 6.1 | 0.00 | 0.00 | 0.00 | 91 | 1007.7 |
| 20260506001542 | 78 | 86 | 2.6 | 8.7 | 0.00 | 0.00 | 0.00 | 91 | 1008.0 |
| 20260506000046 | 78 | 99 | 2.6 | 5.2 | 0.00 | 0.00 | 0.00 | 90 | 1008.0 |
| 20260505234542 | 78 | 108 | 1.7 | 7.8 | 0.00 | 0.00 | 0.00 | 90 | 1007.9 |
| 20260505233041 | 78 | 105 | 2.6 | 7.0 | 0.00 | 0.00 | 0.00 | 90 | 1008.1 |
| 20260505231550 | 78 | 173 | 3.5 | 8.7 | 0.00 | 0.00 | 0.00 | 90 | 1008.1 |
| 20260505230039 | 79 | 100 | 2.6 | 8.7 | 0.00 | 0.00 | 0.00 | 89 | 1008.2 |
| 20260505224538 | 79 | 41 | 3.5 | 7.8 | 0.00 | 0.00 | 0.00 | 88 | 1008.2 |
| 20260505223043 | 79 | 161 | 2.6 | 8.7 | 0.00 | 0.00 | 0.00 | 88 | 1008.3 |
| 20260505221539 | 80 | 115 | 0.9 | 6.1 | 0.00 | 0.00 | 0.00 | 88 | 1008.3 |
| 20260505220043 | 80 | 212 | 2.6 | 8.7 | 0.00 | 0.00 | 0.00 | 87 | 1008.5 |
| 20260505214600 | 81 | 94 | 3.5 | 10.4 | 0.00 | 0.00 | 0.00 | 85 | 1008.6 |
| 20260505213039 | 82 | 99 | 3.5 | 8.7 | 0.00 | 0.00 | 0.00 | 84 | 1008.7 |
| 20260505211537 | 81 | 121 | 0.9 | 9.6 | 0.00 | 0.00 | 0.00 | 86 | 1009.0 |
| 20260505210039 | 82 | 119 | 4.3 | 11.3 | 0.00 | 0.00 | 0.00 | 84 | 1008.9 |
| 20260505204543 | 82 | 67 | 1.7 | 10.4 | 0.00 | 0.00 | 0.00 | 85 | 1009.1 |
| 20260505203039 | 82 | 146 | 2.6 | 11.3 | 0.00 | 0.00 | 0.00 | 85 | 1009.3 |
| 20260505201538 | 82 | 120 | 4.3 | 10.4 | 0.00 | 0.00 | 0.00 | 85 | 1009.5 |
| 20260505200044 | 81 | 113 | 4.3 | 8.7 | 0.00 | 0.00 | 0.00 | 86 | 1009.6 |
| 20260505194537 | 82 | 129 | 4.3 | 11.3 | 0.00 | 0.00 | 0.00 | 84 | 1009.8 |
| 20260505193036 | 82 | 98 | 3.5 | 12.2 | 0.00 | 0.00 | 0.00 | 84 | 1009.9 |
| 20260505191544 | 82 | 111 | 3.5 | 11.3 | 0.00 | 0.00 | 0.00 | 84 | 1009.9 |
| 20260505190041 | 82 | 198 | 3.5 | 10.4 | 0.00 | 0.00 | 0.00 | 85 | 1010.0 |
| 20260505184538 | 82 | 133 | 4.3 | 11.3 | 0.00 | 0.00 | 0.00 | 84 | 1010.1 |
| 20260505183053 | 82 | 146 | 4.3 | 13.0 | 0.00 | 0.00 | 0.00 | 85 | 1010.2 |
| 20260505181541 | 81 | 122 | 4.3 | 13.9 | 0.00 | 0.00 | 0.00 | 86 | 1010.1 |